Time,TemperatureF,DewpointF,PressureIn,WindDirection,WindDirectionDegrees,WindSpeedMPH,WindSpeedGustMPH,Humidity,HourlyPrecipIn,Conditions,Clouds,dailyrainin,SoftwareType,DateUTC
2013-07-24 00:00:00,67.4,49.2,29.91,WNW,292,0.0,2.0,52,0.00,,SKC,0.00,VWS V14.01,2013-07-24 07:00:00,
2013-07-24 00:10:00,67.3,48.6,29.91,WNW,294,0.0,1.0,51,0.00,,SKC,0.00,VWS V14.01,2013-07-24 07:10:00,
2013-07-24 00:15:00,67.3,48.6,29.91,WNW,294,0.0,1.0,51,0.00,,SKC,0.00,VWS V14.01,2013-07-24 07:15:00,
2013-07-24 00:25:00,67.1,48.4,29.91,WNW,294,0.0,2.0,51,0.00,,SKC,0.00,VWS V14.01,2013-07-24 07:25:00,
2013-07-24 00:35:00,67.0,49.3,29.91,WNW,294,0.0,0.0,53,0.00,,SKC,0.00,VWS V14.01,2013-07-24 07:35:00,
2013-07-24 00:40:00,67.0,49.3,29.91,WNW,294,0.0,4.0,53,0.00,,SKC,0.00,VWS V14.01,2013-07-24 07:40:00,
2013-07-24 00:45:00,66.9,49.2,29.91,WNW,294,0.0,3.0,53,0.00,,SKC,0.00,VWS V14.01,2013-07-24 07:45:00,
2013-07-24 00:50:00,66.9,49.7,29.91,WNW,294,2.0,2.0,54,0.00,,SKC,0.00,VWS V14.01,2013-07-24 07:50:00,
2013-07-24 00:55:00,66.8,49.6,29.91,WNW,294,0.0,2.0,54,0.00,,SKC,0.00,VWS V14.01,2013-07-24 07:55:00,
2013-07-24 01:00:00,66.7,49.5,29.91,WNW,294,0.0,1.0,54,0.00,,SKC,0.00,VWS V14.01,2013-07-24 08:00:00,
2013-07-24 01:10:00,66.3,49.7,29.90,WNW,294,0.0,0.0,55,0.00,,SKC,0.00,VWS V14.01,2013-07-24 08:10:00,
2013-07-24 01:15:00,66.1,50.0,29.90,WNW,294,0.0,0.0,56,0.00,,SKC,0.00,VWS V14.01,2013-07-24 08:15:00,
2013-07-24 01:25:00,65.6,50.0,29.90,WNW,294,0.0,0.0,57,0.00,,SKC,0.00,VWS V14.01,2013-07-24 08:25:00,
2013-07-24 01:30:00,65.3,50.6,29.90,WNW,294,0.0,0.0,59,0.00,,SKC,0.00,VWS V14.01,2013-07-24 08:30:00,
2013-07-24 01:35:00,65.3,50.6,29.90,WNW,294,0.0,0.0,59,0.00,,SKC,0.00,VWS V14.01,2013-07-24 08:35:00,
2013-07-24 01:40:00,65.2,50.5,29.90,WNW,294,0.0,0.0,59,0.00,,SKC,0.00,VWS V14.01,2013-07-24 08:40:00,
2013-07-24 01:45:00,65.1,50.9,29.90,WNW,294,0.0,1.0,60,0.00,,SKC,0.00,VWS V14.01,2013-07-24 08:45:00,
2013-07-24 01:55:00,64.9,51.2,29.90,WNW,294,0.0,1.0,61,0.00,,SKC,0.00,VWS V14.01,2013-07-24 08:55:00,
2013-07-24 02:00:00,64.9,51.6,29.90,WNW,294,0.0,2.0,62,0.00,,SKC,0.00,VWS V14.01,2013-07-24 09:00:00,
2013-07-24 02:10:00,64.8,51.5,29.90,WNW,294,0.0,0.0,62,0.00,,SKC,0.00,VWS V14.01,2013-07-24 09:10:00,
2013-07-24 02:15:00,64.6,51.7,29.90,WNW,294,0.0,0.0,63,0.00,,SKC,0.00,VWS V14.01,2013-07-24 09:15:00,
2013-07-24 02:20:00,64.4,51.5,29.90,WNW,294,0.0,1.0,63,0.00,,SKC,0.00,VWS V14.01,2013-07-24 09:20:00,
2013-07-24 02:30:00,64.2,50.9,29.90,WNW,294,0.0,2.0,62,0.00,,SKC,0.00,VWS V14.01,2013-07-24 09:30:00,
2013-07-24 02:40:00,64.2,51.4,29.89,WNW,294,0.0,2.0,63,0.00,,SKC,0.00,VWS V14.01,2013-07-24 09:40:00,
2013-07-24 02:45:00,64.2,51.4,29.89,WNW,294,0.0,1.0,63,0.00,,SKC,0.00,VWS V14.01,2013-07-24 09:45:00,
2013-07-24 02:50:00,64.2,51.8,29.89,WNW,294,0.0,0.0,64,0.00,,SKC,0.00,VWS V14.01,2013-07-24 09:50:00,
2013-07-24 02:55:00,64.0,51.6,29.89,WNW,294,0.0,0.0,64,0.00,,SKC,0.00,VWS V14.01,2013-07-24 09:55:00,
2013-07-24 03:05:00,63.5,52.0,29.89,WNW,294,0.0,0.0,66,0.00,,SKC,0.00,VWS V14.01,2013-07-24 10:05:00,
2013-07-24 03:10:00,63.2,51.7,29.89,WNW,294,0.0,0.0,66,0.00,,SKC,0.00,VWS V14.01,2013-07-24 10:10:00,
2013-07-24 03:15:00,63.0,51.5,29.89,WNW,294,0.0,1.0,66,0.00,,SKC,0.00,VWS V14.01,2013-07-24 10:15:00,
2013-07-24 03:20:00,62.9,51.4,29.89,WNW,294,0.0,0.0,66,0.00,,SKC,0.00,VWS V14.01,2013-07-24 10:20:00,
2013-07-24 03:25:00,62.8,51.3,29.89,WNW,294,0.0,0.0,66,0.00,,SKC,0.00,VWS V14.01,2013-07-24 10:25:00,
2013-07-24 03:30:00,62.7,51.6,29.90,WNW,294,0.0,1.0,67,0.00,,SKC,0.00,VWS V14.01,2013-07-24 10:30:00,
2013-07-24 03:35:00,62.6,51.5,29.89,WNW,294,0.0,0.0,67,0.00,,SKC,0.00,VWS V14.01,2013-07-24 10:35:00,
2013-07-24 03:40:00,62.5,51.4,29.89,WNW,294,0.0,1.0,67,0.00,,SKC,0.00,VWS V14.01,2013-07-24 10:40:00,
2013-07-24 03:45:00,62.5,51.4,29.89,WNW,294,0.0,1.0,67,0.00,,SKC,0.00,VWS V14.01,2013-07-24 10:45:00,
2013-07-24 03:50:00,62.6,51.1,29.89,WNW,294,0.0,1.0,66,0.00,,SKC,0.00,VWS V14.01,2013-07-24 10:50:00,
2013-07-24 04:00:00,62.9,51.0,29.89,WNW,294,0.0,1.0,65,0.00,,SKC,0.00,VWS V14.01,2013-07-24 11:00:00,
2013-07-24 04:10:00,62.9,51.0,29.89,WNW,294,0.0,1.0,65,0.00,,SKC,0.00,VWS V14.01,2013-07-24 11:10:00,
2013-07-24 04:20:00,62.6,51.5,29.89,WNW,294,0.0,1.0,67,0.00,,SKC,0.00,VWS V14.01,2013-07-24 11:20:00,
2013-07-24 04:25:00,62.3,51.2,29.89,WNW,294,0.0,0.0,67,0.00,,SKC,0.00,VWS V14.01,2013-07-24 11:25:00,
2013-07-24 04:30:00,62.2,51.5,29.89,WNW,294,0.0,0.0,68,0.00,,SKC,0.00,VWS V14.01,2013-07-24 11:30:00,
2013-07-24 04:35:00,62.0,51.7,29.89,WNW,294,0.0,0.0,69,0.00,,SKC,0.00,VWS V14.01,2013-07-24 11:35:00,
2013-07-24 04:45:00,61.9,52.0,29.89,WNW,294,0.0,0.0,70,0.00,,SKC,0.00,VWS V14.01,2013-07-24 11:45:00,
2013-07-24 04:50:00,61.9,52.4,29.89,WNW,294,0.0,0.0,71,0.00,,SKC,0.00,VWS V14.01,2013-07-24 11:50:00,
2013-07-24 04:55:00,61.8,52.3,29.89,WNW,294,0.0,0.0,71,0.00,,SKC,0.00,VWS V14.01,2013-07-24 11:55:00,
2013-07-24 05:00:00,61.7,52.2,29.89,WNW,294,0.0,0.0,71,0.00,,SKC,0.00,VWS V14.01,2013-07-24 12:00:00,
2013-07-24 05:05:00,61.6,52.1,29.89,WNW,294,0.0,0.0,71,0.00,,SKC,0.00,VWS V14.01,2013-07-24 12:05:00,
2013-07-24 05:10:00,61.5,52.4,29.90,WNW,294,0.0,0.0,72,0.00,,SKC,0.00,VWS V14.01,2013-07-24 12:10:00,
2013-07-24 05:15:00,61.5,52.8,29.90,WNW,294,0.0,2.0,73,0.00,,SKC,0.00,VWS V14.01,2013-07-24 12:15:00,
2013-07-24 05:25:00,61.8,52.7,29.90,WNW,294,0.0,1.0,72,0.00,,SKC,0.00,VWS V14.01,2013-07-24 12:25:00,
2013-07-24 05:30:00,61.8,52.7,29.90,WNW,294,0.0,0.0,72,0.00,,SKC,0.00,VWS V14.01,2013-07-24 12:30:00,
2013-07-24 05:40:00,61.7,53.0,29.90,WNW,294,0.0,0.0,73,0.00,,SKC,0.00,VWS V14.01,2013-07-24 12:40:00,
2013-07-24 05:45:00,61.6,52.9,29.90,WNW,294,0.0,0.0,73,0.00,,SKC,0.00,VWS V14.01,2013-07-24 12:45:00,
2013-07-24 05:50:00,61.7,53.0,29.90,WNW,294,0.0,0.0,73,0.00,,SKC,0.00,VWS V14.01,2013-07-24 12:50:00,
2013-07-24 05:55:00,61.8,53.4,29.90,WNW,294,0.0,0.0,74,0.00,,SKC,0.00,VWS V14.01,2013-07-24 12:55:00,
2013-07-24 06:05:00,62.0,53.3,29.90,WNW,294,0.0,1.0,73,0.00,,SKC,0.00,VWS V14.01,2013-07-24 13:05:00,
2013-07-24 06:10:00,62.1,53.3,29.91,WNW,294,1.0,2.0,73,0.00,,SKC,0.00,VWS V14.01,2013-07-24 13:10:00,
2013-07-24 06:15:00,62.2,53.8,29.91,WNW,294,0.0,2.0,74,0.00,,SKC,0.00,VWS V14.01,2013-07-24 13:15:00,
2013-07-24 06:20:00,62.2,53.8,29.91,NW,305,0.0,2.0,74,0.00,,SKC,0.00,VWS V14.01,2013-07-24 13:20:00,
2013-07-24 06:25:00,62.2,54.2,29.91,NW,305,0.0,2.0,75,0.00,,SKC,0.00,VWS V14.01,2013-07-24 13:25:00,
2013-07-24 06:30:00,62.2,54.9,29.91,NW,309,0.0,5.0,77,0.00,,SKC,0.00,VWS V14.01,2013-07-24 13:30:00,
2013-07-24 06:35:00,62.3,55.0,29.91,NW,311,0.0,4.0,77,0.00,,SKC,0.00,VWS V14.01,2013-07-24 13:35:00,
2013-07-24 06:40:00,62.3,55.4,29.92,NW,311,1.0,2.0,78,0.00,,SKC,0.00,VWS V14.01,2013-07-24 13:40:00,
2013-07-24 06:45:00,62.3,55.4,29.92,NW,311,0.0,2.0,78,0.00,,SKC,0.00,VWS V14.01,2013-07-24 13:45:00,
2013-07-24 06:50:00,62.2,55.6,29.92,NW,310,4.0,4.0,79,0.00,,SKC,0.00,VWS V14.01,2013-07-24 13:50:00,
2013-07-24 06:55:00,62.3,55.7,29.92,NW,311,0.0,4.0,79,0.00,,SKC,0.00,VWS V14.01,2013-07-24 13:55:00,
2013-07-24 07:00:00,62.4,55.8,29.92,NW,311,0.0,1.0,79,0.00,,SKC,0.00,VWS V14.01,2013-07-24 14:00:00,
2013-07-24 07:05:00,62.5,55.9,29.92,NW,311,0.0,0.0,79,0.00,,SKC,0.00,VWS V14.01,2013-07-24 14:05:00,
2013-07-24 07:10:00,62.6,56.0,29.92,NW,310,0.0,0.0,79,0.00,,SKC,0.00,VWS V14.01,2013-07-24 14:10:00,
2013-07-24 07:15:00,62.7,56.1,29.92,NW,310,0.0,1.0,79,0.00,,SKC,0.00,VWS V14.01,2013-07-24 14:15:00,
2013-07-24 07:20:00,62.9,56.3,29.92,NW,311,0.0,0.0,79,0.00,,SKC,0.00,VWS V14.01,2013-07-24 14:20:00,
2013-07-24 07:25:00,63.0,56.0,29.92,NW,310,0.0,1.0,78,0.00,,SKC,0.00,VWS V14.01,2013-07-24 14:25:00,
2013-07-24 07:30:00,63.2,56.2,29.93,NW,310,0.0,2.0,78,0.00,,SKC,0.00,VWS V14.01,2013-07-24 14:30:00,
2013-07-24 07:35:00,63.6,56.6,29.92,NW,311,0.0,0.0,78,0.00,,SKC,0.00,VWS V14.01,2013-07-24 14:35:00,
2013-07-24 07:45:00,64.5,56.8,29.93,NW,311,0.0,2.0,76,0.00,,SKC,0.00,VWS V14.01,2013-07-24 14:45:00,
2013-07-24 07:50:00,64.7,57.0,29.93,NW,311,0.0,4.0,76,0.00,,SKC,0.00,VWS V14.01,2013-07-24 14:50:00,
2013-07-24 07:55:00,64.9,56.8,29.93,NW,311,0.0,1.0,75,0.00,,SKC,0.00,VWS V14.01,2013-07-24 14:55:00,
2013-07-24 08:00:00,65.1,57.0,29.92,NW,311,0.0,1.0,75,0.00,,SKC,0.00,VWS V14.01,2013-07-24 15:00:00,
2013-07-24 08:05:00,65.4,57.3,29.93,NW,311,0.0,0.0,75,0.00,,SKC,0.00,VWS V14.01,2013-07-24 15:05:00,
2013-07-24 08:10:00,65.6,57.1,29.93,NW,311,0.0,2.0,74,0.00,,SKC,0.00,VWS V14.01,2013-07-24 15:10:00,
2013-07-24 08:15:00,65.9,57.0,29.93,NW,311,0.0,2.0,73,0.00,,SKC,0.00,VWS V14.01,2013-07-24 15:15:00,
2013-07-24 08:25:00,66.7,57.4,29.92,NW,311,0.0,4.0,72,0.00,,SKC,0.00,VWS V14.01,2013-07-24 15:25:00,
2013-07-24 08:30:00,67.2,57.5,29.92,WNW,295,2.0,5.0,71,0.00,,SKC,0.00,VWS V14.01,2013-07-24 15:30:00,
2013-07-24 08:35:00,67.7,57.6,29.92,WNW,296,2.0,2.0,70,0.00,,SKC,0.00,VWS V14.01,2013-07-24 15:35:00,
2013-07-24 08:45:00,68.7,57.3,29.92,NNW,341,1.0,4.0,67,0.00,,SKC,0.00,VWS V14.01,2013-07-24 15:45:00,
2013-07-24 08:50:00,69.3,57.5,29.92,NW,304,0.0,4.0,66,0.00,,SKC,0.00,VWS V14.01,2013-07-24 15:50:00,
2013-07-24 08:55:00,69.8,57.1,29.92,NW,320,0.0,5.0,64,0.00,,SKC,0.00,VWS V14.01,2013-07-24 15:55:00,
2013-07-24 09:00:00,70.6,57.0,29.93,NNW,327,1.0,4.0,62,0.00,,SKC,0.00,VWS V14.01,2013-07-24 16:00:00,
2013-07-24 09:05:00,71.4,56.8,29.92,West,269,7.0,7.0,60,0.00,,SKC,0.00,VWS V14.01,2013-07-24 16:05:00,
2013-07-24 09:15:00,72.4,56.8,29.93,WSW,247,0.0,6.0,58,0.00,,SKC,0.00,VWS V14.01,2013-07-24 16:15:00,
2013-07-24 09:20:00,72.9,56.3,29.92,NW,325,4.0,7.0,56,0.00,,SKC,0.00,VWS V14.01,2013-07-24 16:20:00,
2013-07-24 09:25:00,73.3,55.2,29.93,WNW,293,1.0,6.0,53,0.00,,SKC,0.00,VWS V14.01,2013-07-24 16:25:00,
2013-07-24 09:35:00,74.2,57.5,29.93,West,273,0.0,7.0,56,0.00,,SKC,0.00,VWS V14.01,2013-07-24 16:35:00,
2013-07-24 09:40:00,74.5,57.8,29.93,NW,322,4.0,7.0,56,0.00,,SKC,0.00,VWS V14.01,2013-07-24 16:40:00,
2013-07-24 09:45:00,75.1,57.8,29.93,WSW,240,1.0,6.0,55,0.00,,SKC,0.00,VWS V14.01,2013-07-24 16:45:00,
2013-07-24 09:50:00,76.1,56.7,29.92,WNW,282,0.0,4.0,51,0.00,,SKC,0.00,VWS V14.01,2013-07-24 16:50:00,
2013-07-24 09:55:00,77.4,56.8,29.93,West,263,0.0,4.0,49,0.00,,SKC,0.00,VWS V14.01,2013-07-24 16:55:00,
2013-07-24 10:00:00,78.9,57.0,29.92,East,101,2.0,5.0,47,0.00,,SKC,0.00,VWS V14.01,2013-07-24 17:00:00,
2013-07-24 10:05:00,80.0,56.8,29.92,WSW,254,0.0,7.0,45,0.00,,SKC,0.00,VWS V14.01,2013-07-24 17:05:00,
2013-07-24 10:10:00,80.7,56.2,29.92,West,268,0.0,5.0,43,0.00,,SKC,0.00,VWS V14.01,2013-07-24 17:10:00,
2013-07-24 10:15:00,80.8,56.9,29.92,WNW,290,0.0,7.0,44,0.00,,SKC,0.00,VWS V14.01,2013-07-24 17:15:00,
2013-07-24 10:20:00,80.8,57.5,29.92,WSW,256,2.0,8.0,45,0.00,,SKC,0.00,VWS V14.01,2013-07-24 17:20:00,
2013-07-24 10:25:00,81.4,57.4,29.92,West,267,2.0,5.0,44,0.00,,SKC,0.00,VWS V14.01,2013-07-24 17:25:00,
2013-07-24 10:30:00,82.0,58.0,29.92,SW,232,0.0,10.0,44,0.00,,SKC,0.00,VWS V14.01,2013-07-24 17:30:00,
2013-07-24 10:40:00,83.1,57.7,29.92,WNW,283,0.0,5.0,42,0.00,,SKC,0.00,VWS V14.01,2013-07-24 17:40:00,
2013-07-24 10:45:00,83.1,57.7,29.92,SSW,203,2.0,5.0,42,0.00,,SKC,0.00,VWS V14.01,2013-07-24 17:45:00,
2013-07-24 10:50:00,83.4,57.9,29.92,West,265,0.0,6.0,42,0.00,,SKC,0.00,VWS V14.01,2013-07-24 17:50:00,
2013-07-24 10:55:00,84.3,58.1,29.92,West,275,3.0,5.0,41,0.00,,SKC,0.00,VWS V14.01,2013-07-24 17:55:00,
2013-07-24 11:00:00,84.8,59.2,29.92,South,175,0.0,6.0,42,0.00,,SKC,0.00,VWS V14.01,2013-07-24 18:00:00,
2013-07-24 11:05:00,85.3,58.3,29.92,South,178,2.0,4.0,40,0.00,,SKC,0.00,VWS V14.01,2013-07-24 18:05:00,
2013-07-24 11:10:00,85.2,59.5,29.92,West,269,0.0,4.0,42,0.00,,SKC,0.00,VWS V14.01,2013-07-24 18:10:00,
2013-07-24 11:15:00,86.0,60.3,29.92,West,269,1.0,5.0,42,0.00,,SKC,0.00,VWS V14.01,2013-07-24 18:15:00,
2013-07-24 11:20:00,86.4,59.9,29.92,WNW,284,3.0,8.0,41,0.00,,SKC,0.00,VWS V14.01,2013-07-24 18:20:00,
2013-07-24 11:30:00,85.4,60.4,29.91,WNW,302,0.0,6.0,43,0.00,,SKC,0.00,VWS V14.01,2013-07-24 18:30:00,
2013-07-24 11:35:00,85.3,60.9,29.91,NW,318,4.0,6.0,44,0.00,,SKC,0.00,VWS V14.01,2013-07-24 18:35:00,
2013-07-24 11:40:00,85.5,60.5,29.91,West,268,7.0,8.0,43,0.00,,SKC,0.00,VWS V14.01,2013-07-24 18:40:00,
2013-07-24 11:45:00,86.2,59.8,29.91,NW,304,0.0,7.0,41,0.00,,SKC,0.00,VWS V14.01,2013-07-24 18:45:00,
2013-07-24 11:50:00,86.8,59.6,29.91,WNW,294,3.0,7.0,40,0.00,,SKC,0.00,VWS V14.01,2013-07-24 18:50:00,
2013-07-24 11:55:00,87.0,59.1,29.90,West,279,0.0,9.0,39,0.00,,SKC,0.00,VWS V14.01,2013-07-24 18:55:00,
2013-07-24 12:00:00,87.4,59.4,29.91,NW,324,4.0,7.0,39,0.00,,SKC,0.00,VWS V14.01,2013-07-24 19:00:00,
2013-07-24 12:05:00,87.3,59.3,29.90,NW,326,2.0,7.0,39,0.00,,SKC,0.00,VWS V14.01,2013-07-24 19:05:00,
2013-07-24 12:10:00,87.1,59.2,29.90,NW,321,3.0,7.0,39,0.00,,SKC,0.00,VWS V14.01,2013-07-24 19:10:00,
2013-07-24 12:15:00,87.7,59.7,29.90,West,259,5.0,7.0,39,0.00,,SKC,0.00,VWS V14.01,2013-07-24 19:15:00,
2013-07-24 12:20:00,87.9,59.9,29.90,NE,42,2.0,9.0,39,0.00,,SKC,0.00,VWS V14.01,2013-07-24 19:20:00,
2013-07-24 12:25:00,87.9,59.9,29.90,WNW,303,5.0,10.0,39,0.00,,SKC,0.00,VWS V14.01,2013-07-24 19:25:00,
2013-07-24 12:30:00,88.4,59.6,29.90,West,271,5.0,8.0,38,0.00,,SKC,0.00,VWS V14.01,2013-07-24 19:30:00,
2013-07-24 12:35:00,88.8,58.4,29.90,WNW,303,2.0,7.0,36,0.00,,SKC,0.00,VWS V14.01,2013-07-24 19:35:00,
2013-07-24 12:45:00,89.1,58.7,29.90,WNW,288,4.0,7.0,36,0.00,,SKC,0.00,VWS V14.01,2013-07-24 19:45:00,
2013-07-24 12:50:00,89.1,58.7,29.90,West,259,0.0,6.0,36,0.00,,SKC,0.00,VWS V14.01,2013-07-24 19:50:00,
2013-07-24 12:55:00,89.6,58.3,29.89,WNW,284,6.0,8.0,35,0.00,,SKC,0.00,VWS V14.01,2013-07-24 19:55:00,
2013-07-24 13:00:00,89.8,58.5,29.89,NW,323,5.0,6.0,35,0.00,,SKC,0.00,VWS V14.01,2013-07-24 20:00:00,
2013-07-24 13:05:00,90.1,58.0,29.89,NW,321,4.0,7.0,34,0.00,,SKC,0.00,VWS V14.01,2013-07-24 20:05:00,
2013-07-24 13:10:00,90.5,57.5,29.89,NNW,329,8.0,8.0,33,0.00,,SKC,0.00,VWS V14.01,2013-07-24 20:10:00,
2013-07-24 13:15:00,90.8,57.8,29.89,North,5,5.0,9.0,33,0.00,,SKC,0.00,VWS V14.01,2013-07-24 20:15:00,
2013-07-24 13:20:00,91.0,57.9,29.89,NW,304,4.0,8.0,33,0.00,,SKC,0.00,VWS V14.01,2013-07-24 20:20:00,
2013-07-24 13:25:00,91.5,57.5,29.89,WNW,290,5.0,9.0,32,0.00,,SKC,0.00,VWS V14.01,2013-07-24 20:25:00,
2013-07-24 13:30:00,91.6,58.5,29.88,West,263,5.0,8.0,33,0.00,,SKC,0.00,VWS V14.01,2013-07-24 20:30:00,
2013-07-24 13:40:00,91.9,57.9,29.88,NNW,342,4.0,8.0,32,0.00,,SKC,0.00,VWS V14.01,2013-07-24 20:40:00,
2013-07-24 13:45:00,92.0,57.9,29.88,WNW,294,5.0,9.0,32,0.00,,SKC,0.00,VWS V14.01,2013-07-24 20:45:00,
2013-07-24 13:50:00,92.7,58.5,29.88,WNW,302,0.0,8.0,32,0.00,,SKC,0.00,VWS V14.01,2013-07-24 20:50:00,
2013-07-24 13:55:00,93.6,57.5,29.88,NW,305,7.0,10.0,30,0.00,,SKC,0.00,VWS V14.01,2013-07-24 20:55:00,
2013-07-24 14:00:00,93.7,57.6,29.88,West,281,5.0,9.0,30,0.00,,SKC,0.00,VWS V14.01,2013-07-24 21:00:00,
2013-07-24 14:05:00,94.1,58.9,29.88,NNW,328,5.0,9.0,31,0.00,,SKC,0.00,VWS V14.01,2013-07-24 21:05:00,
2013-07-24 14:10:00,94.1,58.0,29.88,NW,313,5.0,8.0,30,0.00,,SKC,0.00,VWS V14.01,2013-07-24 21:10:00,
2013-07-24 14:15:00,94.5,57.4,29.88,WNW,294,4.0,11.0,29,0.00,,SKC,0.00,VWS V14.01,2013-07-24 21:15:00,
2013-07-24 14:20:00,95.1,57.9,29.87,NNW,344,7.0,7.0,29,0.00,,SKC,0.00,VWS V14.01,2013-07-24 21:20:00,
2013-07-24 14:25:00,95.3,59.0,29.87,WNW,301,5.0,8.0,30,0.00,,SKC,0.00,VWS V14.01,2013-07-24 21:25:00,
2013-07-24 14:30:00,95.0,58.7,29.87,North,355,4.0,9.0,30,0.00,,SKC,0.00,VWS V14.01,2013-07-24 21:30:00,
2013-07-24 14:35:00,94.5,58.3,29.87,NW,320,0.0,11.0,30,0.00,,SKC,0.00,VWS V14.01,2013-07-24 21:35:00,
2013-07-24 14:40:00,95.3,59.0,29.87,WNW,290,3.0,10.0,30,0.00,,SKC,0.00,VWS V14.01,2013-07-24 21:40:00,
2013-07-24 14:45:00,95.6,58.3,29.87,West,281,6.0,11.0,29,0.00,,SKC,0.00,VWS V14.01,2013-07-24 21:45:00,
2013-07-24 14:50:00,95.8,58.5,29.87,NNW,337,4.0,8.0,29,0.00,,SKC,0.00,VWS V14.01,2013-07-24 21:50:00,
2013-07-24 14:55:00,96.4,59.0,29.87,WSW,244,0.0,10.0,29,0.00,,SKC,0.00,VWS V14.01,2013-07-24 21:55:00,
2013-07-24 15:00:00,96.6,59.2,29.86,WNW,296,4.0,8.0,29,0.00,,SKC,0.00,VWS V14.01,2013-07-24 22:00:00,
2013-07-24 15:05:00,96.5,59.1,29.86,WNW,294,4.0,10.0,29,0.00,,SKC,0.00,VWS V14.01,2013-07-24 22:05:00,
2013-07-24 15:10:00,96.2,58.8,29.86,SSE,159,3.0,7.0,29,0.00,,SKC,0.00,VWS V14.01,2013-07-24 22:10:00,
2013-07-24 15:15:00,96.6,58.2,29.86,NW,309,1.0,9.0,28,0.00,,SKC,0.00,VWS V14.01,2013-07-24 22:15:00,
2013-07-24 15:20:00,96.6,59.2,29.86,WSW,248,6.0,9.0,29,0.00,,SKC,0.00,VWS V14.01,2013-07-24 22:20:00,
2013-07-24 15:25:00,96.9,59.4,29.86,WNW,299,0.0,9.0,29,0.00,,SKC,0.00,VWS V14.01,2013-07-24 22:25:00,
2013-07-24 15:30:00,96.8,59.3,29.86,NW,313,5.0,9.0,29,0.00,,SKC,0.00,VWS V14.01,2013-07-24 22:30:00,
2013-07-24 15:35:00,96.1,58.7,29.85,West,267,2.0,9.0,29,0.00,,SKC,0.00,VWS V14.01,2013-07-24 22:35:00,
2013-07-24 15:40:00,96.2,58.8,29.86,WNW,288,4.0,9.0,29,0.00,,SKC,0.00,VWS V14.01,2013-07-24 22:40:00,
2013-07-24 15:45:00,96.2,58.8,29.85,West,274,4.0,7.0,29,0.00,,SKC,0.00,VWS V14.01,2013-07-24 22:45:00,
2013-07-24 15:50:00,96.2,57.8,29.85,WNW,294,0.0,13.0,28,0.00,,SKC,0.00,VWS V14.01,2013-07-24 22:50:00,
2013-07-24 15:55:00,95.8,58.5,29.85,West,276,0.0,7.0,29,0.00,,SKC,0.00,VWS V14.01,2013-07-24 22:55:00,
2013-07-24 16:00:00,96.2,58.8,29.85,WNW,292,8.0,8.0,29,0.00,,SKC,0.00,VWS V14.01,2013-07-24 23:00:00,
2013-07-24 16:05:00,96.3,58.9,29.85,WNW,301,3.0,10.0,29,0.00,,SKC,0.00,VWS V14.01,2013-07-24 23:05:00,
2013-07-24 16:10:00,96.4,59.0,29.85,WNW,284,8.0,10.0,29,0.00,,SKC,0.00,VWS V14.01,2013-07-24 23:10:00,
2013-07-24 16:15:00,96.3,58.9,29.84,WNW,283,2.0,11.0,29,0.00,,SKC,0.00,VWS V14.01,2013-07-24 23:15:00,
2013-07-24 16:20:00,96.3,58.9,29.84,NNW,331,6.0,11.0,29,0.00,,SKC,0.00,VWS V14.01,2013-07-24 23:20:00,
2013-07-24 16:25:00,96.2,58.8,29.84,West,266,2.0,13.0,29,0.00,,SKC,0.00,VWS V14.01,2013-07-24 23:25:00,
2013-07-24 16:30:00,96.2,58.8,29.84,NW,304,2.0,9.0,29,0.00,,SKC,0.00,VWS V14.01,2013-07-24 23:30:00,
2013-07-24 16:35:00,96.1,58.7,29.84,West,277,6.0,9.0,29,0.00,,SKC,0.00,VWS V14.01,2013-07-24 23:35:00,
2013-07-24 16:40:00,96.5,58.1,29.84,West,270,3.0,6.0,28,0.00,,SKC,0.00,VWS V14.01,2013-07-24 23:40:00,
2013-07-24 16:45:00,96.8,58.3,29.84,WNW,291,0.0,8.0,28,0.00,,SKC,0.00,VWS V14.01,2013-07-24 23:45:00,
2013-07-24 16:50:00,96.9,59.4,29.84,WNW,291,6.0,8.0,29,0.00,,SKC,0.00,VWS V14.01,2013-07-24 23:50:00,
2013-07-24 16:55:00,96.7,59.2,29.84,North,349,5.0,8.0,29,0.00,,SKC,0.00,VWS V14.01,2013-07-24 23:55:00,
2013-07-24 17:05:00,95.1,58.8,29.84,NW,314,6.0,9.0,30,0.00,,SKC,0.00,VWS V14.01,2013-07-25 00:05:00,
2013-07-24 17:10:00,94.1,58.9,29.84,NW,315,3.0,7.0,31,0.00,,SKC,0.00,VWS V14.01,2013-07-25 00:10:00,
2013-07-24 17:15:00,93.7,58.5,29.84,West,277,1.0,8.0,31,0.00,,SKC,0.00,VWS V14.01,2013-07-25 00:15:00,
2013-07-24 17:20:00,93.7,58.5,29.84,WNW,302,5.0,8.0,31,0.00,,SKC,0.00,VWS V14.01,2013-07-25 00:20:00,
2013-07-24 17:25:00,93.4,58.3,29.84,West,277,2.0,7.0,31,0.00,,SKC,0.00,VWS V14.01,2013-07-25 00:25:00,
2013-07-24 17:30:00,93.2,58.1,29.84,WNW,284,4.0,8.0,31,0.00,,SKC,0.00,VWS V14.01,2013-07-25 00:30:00,
2013-07-24 17:35:00,92.4,58.3,29.84,NW,322,6.0,8.0,32,0.00,,SKC,0.00,VWS V14.01,2013-07-25 00:35:00,
2013-07-24 17:45:00,91.5,58.4,29.83,NNW,331,6.0,10.0,33,0.00,,SKC,0.00,VWS V14.01,2013-07-25 00:45:00,
2013-07-24 17:50:00,91.3,58.2,29.84,NW,313,2.0,7.0,33,0.00,,SKC,0.00,VWS V14.01,2013-07-25 00:50:00,
2013-07-24 18:00:00,90.7,57.7,29.83,NW,306,5.0,10.0,33,0.00,,SKC,0.00,VWS V14.01,2013-07-25 01:00:00,
2013-07-24 18:10:00,89.9,57.8,29.83,NNW,342,4.0,11.0,34,0.00,,SKC,0.00,VWS V14.01,2013-07-25 01:10:00,
2013-07-24 18:15:00,89.7,57.6,29.83,West,267,4.0,7.0,34,0.00,,SKC,0.00,VWS V14.01,2013-07-25 01:15:00,
2013-07-24 18:20:00,89.4,57.4,29.83,WNW,294,5.0,9.0,34,0.00,,SKC,0.00,VWS V14.01,2013-07-25 01:20:00,
2013-07-24 18:25:00,89.2,57.2,29.83,NNW,337,4.0,8.0,34,0.00,,SKC,0.00,VWS V14.01,2013-07-25 01:25:00,
2013-07-24 18:30:00,89.0,57.0,29.83,West,271,4.0,8.0,34,0.00,,SKC,0.00,VWS V14.01,2013-07-25 01:30:00,
2013-07-24 18:35:00,88.6,56.7,29.83,WSW,256,1.0,7.0,34,0.00,,SKC,0.00,VWS V14.01,2013-07-25 01:35:00,
2013-07-24 18:40:00,88.2,57.1,29.84,West,272,4.0,6.0,35,0.00,,SKC,0.00,VWS V14.01,2013-07-25 01:40:00,
2013-07-24 18:45:00,87.9,57.6,29.83,WNW,296,1.0,9.0,36,0.00,,SKC,0.00,VWS V14.01,2013-07-25 01:45:00,
2013-07-24 18:50:00,87.5,57.3,29.84,WNW,290,4.0,7.0,36,0.00,,SKC,0.00,VWS V14.01,2013-07-25 01:50:00,
2013-07-24 18:55:00,87.2,57.0,29.83,WNW,289,5.0,6.0,36,0.00,,SKC,0.00,VWS V14.01,2013-07-25 01:55:00,
2013-07-24 19:00:00,87.1,56.9,29.84,WNW,290,3.0,5.0,36,0.00,,SKC,0.00,VWS V14.01,2013-07-25 02:00:00,
2013-07-24 19:05:00,87.1,56.9,29.83,West,267,3.0,6.0,36,0.00,,SKC,0.00,VWS V14.01,2013-07-25 02:05:00,
2013-07-24 19:10:00,87.0,56.8,29.83,WNW,284,3.0,8.0,36,0.00,,SKC,0.00,VWS V14.01,2013-07-25 02:10:00,
2013-07-24 19:15:00,86.7,56.6,29.83,NW,317,0.0,7.0,36,0.00,,SKC,0.00,VWS V14.01,2013-07-25 02:15:00,
2013-07-24 19:25:00,86.2,56.1,29.84,WNW,287,1.0,5.0,36,0.00,,SKC,0.00,VWS V14.01,2013-07-25 02:25:00,
2013-07-24 19:30:00,86.1,53.7,29.83,WSW,256,0.0,8.0,33,0.00,,SKC,0.00,VWS V14.01,2013-07-25 02:30:00,
2013-07-24 19:35:00,85.9,53.5,29.84,West,281,0.0,6.0,33,0.00,,SKC,0.00,VWS V14.01,2013-07-25 02:35:00,
2013-07-24 19:40:00,85.8,53.4,29.84,SW,236,0.0,3.0,33,0.00,,SKC,0.00,VWS V14.01,2013-07-25 02:40:00,
2013-07-24 19:45:00,85.7,53.3,29.84,NW,306,0.0,4.0,33,0.00,,SKC,0.00,VWS V14.01,2013-07-25 02:45:00,
2013-07-24 19:50:00,85.5,53.1,29.84,West,265,0.0,4.0,33,0.00,,SKC,0.00,VWS V14.01,2013-07-25 02:50:00,
2013-07-24 20:00:00,84.8,52.5,29.84,West,259,0.0,4.0,33,0.00,,SKC,0.00,VWS V14.01,2013-07-25 03:00:00,
2013-07-24 20:05:00,84.5,53.1,29.84,WSW,254,0.0,2.0,34,0.00,,SKC,0.00,VWS V14.01,2013-07-25 03:05:00,
2013-07-24 20:10:00,84.1,52.7,29.84,West,268,2.0,2.0,34,0.00,,SKC,0.00,VWS V14.01,2013-07-25 03:10:00,
2013-07-24 20:15:00,83.6,52.3,29.84,WNW,282,0.0,4.0,34,0.00,,SKC,0.00,VWS V14.01,2013-07-25 03:15:00,
2013-07-24 20:25:00,82.7,53.1,29.84,SSW,199,0.0,1.0,36,0.00,,SKC,0.00,VWS V14.01,2013-07-25 03:25:00,
2013-07-24 20:30:00,82.2,55.5,29.85,West,267,0.0,5.0,40,0.00,,SKC,0.00,VWS V14.01,2013-07-25 03:30:00,
2013-07-24 20:35:00,81.6,55.0,29.85,West,267,0.0,1.0,40,0.00,,SKC,0.00,VWS V14.01,2013-07-25 03:35:00,
2013-07-24 20:45:00,80.4,53.9,29.85,West,266,0.0,1.0,40,0.00,,SKC,0.00,VWS V14.01,2013-07-25 03:45:00,
2013-07-24 20:50:00,80.0,53.5,29.85,West,265,0.0,0.0,40,0.00,,SKC,0.00,VWS V14.01,2013-07-25 03:50:00,
2013-07-24 21:00:00,79.4,53.0,29.85,WNW,283,1.0,5.0,40,0.00,,SKC,0.00,VWS V14.01,2013-07-25 04:00:00,
2013-07-24 21:05:00,79.1,53.4,29.85,West,276,0.0,1.0,41,0.00,,SKC,0.00,VWS V14.01,2013-07-25 04:05:00,
2013-07-24 21:10:00,78.8,53.1,29.85,SW,214,0.0,1.0,41,0.00,,SKC,0.00,VWS V14.01,2013-07-25 04:10:00,
2013-07-24 21:15:00,78.7,53.7,29.85,WNW,285,0.0,4.0,42,0.00,,SKC,0.00,VWS V14.01,2013-07-25 04:15:00,
2013-07-24 21:20:00,78.4,53.4,29.86,West,259,0.0,4.0,42,0.00,,SKC,0.00,VWS V14.01,2013-07-25 04:20:00,
2013-07-24 21:25:00,78.1,53.2,29.86,West,259,0.0,2.0,42,0.00,,SKC,0.00,VWS V14.01,2013-07-25 04:25:00,
2013-07-24 21:30:00,78.0,53.7,29.85,West,261,0.0,1.0,43,0.00,,SKC,0.00,VWS V14.01,2013-07-25 04:30:00,
2013-07-24 21:35:00,77.9,53.6,29.85,West,261,0.0,2.0,43,0.00,,SKC,0.00,VWS V14.01,2013-07-25 04:35:00,
2013-07-24 21:40:00,77.7,53.5,29.86,West,261,0.0,0.0,43,0.00,,SKC,0.00,VWS V14.01,2013-07-25 04:40:00,
2013-07-24 21:45:00,77.4,53.2,29.86,West,261,0.0,0.0,43,0.00,,SKC,0.00,VWS V14.01,2013-07-25 04:45:00,
2013-07-24 21:50:00,77.1,52.9,29.86,West,261,0.0,2.0,43,0.00,,SKC,0.00,VWS V14.01,2013-07-25 04:50:00,
2013-07-24 21:55:00,76.8,52.6,29.86,West,261,0.0,2.0,43,0.00,,SKC,0.00,VWS V14.01,2013-07-25 04:55:00,
2013-07-24 22:05:00,76.5,52.4,29.86,West,261,0.0,2.0,43,0.00,,SKC,0.00,VWS V14.01,2013-07-25 05:05:00,
2013-07-24 22:10:00,76.4,52.3,29.86,West,261,1.0,2.0,43,0.00,,SKC,0.00,VWS V14.01,2013-07-25 05:10:00,
2013-07-24 22:20:00,76.0,52.5,29.86,West,261,0.0,1.0,44,0.00,,SKC,0.00,VWS V14.01,2013-07-25 05:20:00,
2013-07-24 22:25:00,75.9,52.5,29.86,West,261,0.0,1.0,44,0.00,,SKC,0.00,VWS V14.01,2013-07-25 05:25:00,
2013-07-24 22:30:00,75.7,51.6,29.86,West,273,0.0,3.0,43,0.00,,SKC,0.00,VWS V14.01,2013-07-25 05:30:00,
2013-07-24 22:40:00,75.9,51.8,29.86,WSW,249,0.0,5.0,43,0.00,,SKC,0.00,VWS V14.01,2013-07-25 05:40:00,
2013-07-24 22:45:00,75.9,51.8,29.86,WSW,246,0.0,3.0,43,0.00,,SKC,0.00,VWS V14.01,2013-07-25 05:45:00,
2013-07-24 22:50:00,75.7,51.6,29.86,SW,219,0.0,5.0,43,0.00,,SKC,0.00,VWS V14.01,2013-07-25 05:50:00,
2013-07-24 22:55:00,75.5,52.1,29.86,WNW,283,1.0,4.0,44,0.00,,SKC,0.00,VWS V14.01,2013-07-25 05:55:00,
2013-07-24 23:00:00,75.2,51.8,29.86,West,281,0.0,2.0,44,0.00,,SKC,0.00,VWS V14.01,2013-07-25 06:00:00,
2013-07-24 23:10:00,74.7,52.0,29.85,West,281,0.0,2.0,45,0.00,,SKC,0.00,VWS V14.01,2013-07-25 06:10:00,
2013-07-24 23:15:00,74.4,51.7,29.85,West,281,0.0,1.0,45,0.00,,SKC,0.00,VWS V14.01,2013-07-25 06:15:00,
2013-07-24 23:20:00,74.2,51.5,29.86,West,281,0.0,2.0,45,0.00,,SKC,0.00,VWS V14.01,2013-07-25 06:20:00,
2013-07-24 23:25:00,74.0,51.3,29.86,West,281,1.0,1.0,45,0.00,,SKC,0.00,VWS V14.01,2013-07-25 06:25:00,
2013-07-24 23:35:00,73.5,51.5,29.86,West,281,0.0,0.0,46,0.00,,SKC,0.00,VWS V14.01,2013-07-25 06:35:00,
2013-07-24 23:40:00,73.3,51.3,29.86,WNW,287,0.0,1.0,46,0.00,,SKC,0.00,VWS V14.01,2013-07-25 06:40:00,
2013-07-24 23:45:00,73.1,51.7,29.86,WNW,288,0.0,1.0,47,0.00,,SKC,0.00,VWS V14.01,2013-07-25 06:45:00,
2013-07-24 23:55:00,72.7,51.3,29.86,WNW,287,0.0,0.0,47,0.00,,SKC,0.00,VWS V14.01,2013-07-25 06:55:00,